FW2775 Weather Reports


time (UTC)temp
C
wind
direction
speed
KPH
gust
KPH
rain 1hr
cm
rain 24hr
cm
rain mn
cm
humidity
%
barometer
mb
20260505031236 18 169 4.8 11.3 0.00 0.00 0.00 42 1017.5
20260505030256 18 157 6.4 14.5 0.00 0.00 0.00 41 1017.6
20260505025256 18 161 8.0 16.1 0.00 0.00 0.00 40 1017.5
20260505024216 18 165 6.4 12.9 0.00 0.00 0.00 39 1017.4
20260505023216 19 183 4.8 11.3 0.00 0.00 0.00 38 1017.5
20260505022216 19 141 8.0 16.1 0.00 0.00 0.00 38 1017.3
20260505021216 19 171 8.0 17.7 0.00 0.00 0.00 37 1017.3
20260505020215 20 160 8.0 14.5 0.00 0.00 0.00 36 1017.2
20260505015256 20 154 4.8 8.0 0.00 0.00 0.00 35 1017.0
20260505014215 20 173 3.2 9.7 0.00 0.00 0.00 35 1016.9
20260505013216 20 164 8.0 11.3 0.00 0.00 0.00 35 1016.7
20260505012216 20 167 4.8 12.9 0.00 0.00 0.00 34 1016.6
20260505011215 20 166 4.8 12.9 0.00 0.00 0.00 34 1016.5
20260505010216 21 159 4.8 12.9 0.00 0.00 0.00 33 1016.3
20260505005215 21 175 8.0 11.3 0.00 0.00 0.00 33 1016.1
20260505003216 21 151 9.7 16.1 0.00 0.00 0.00 33 1015.9
20260505002256 21 156 8.0 19.3 0.00 0.00 0.00 33 1015.7
20260505000215 22 167 6.4 14.5 0.00 0.00 0.00 33 1015.5
20260504235215 22 160 11.3 24.1 0.00 0.00 0.00 31 1015.4
20260504234215 22 191 3.2 11.3 0.00 0.00 0.00 30 1015.2
20260504233215 22 180 8.0 20.9 0.00 0.00 0.00 30 1015.2
20260504232235 22 160 12.9 20.9 0.00 0.00 0.00 30 1015.2
20260504231235 23 164 6.4 17.7 0.00 0.00 0.00 30 1015.1
20260504230235 23 175 6.4 19.3 0.00 0.00 0.00 30 1015.1
20260504225215 23 172 3.2 9.7 0.00 0.00 0.00 28 1015.1
20260504224236 23 186 6.4 17.7 0.00 0.00 0.00 27 1015.2
20260504223315 23 194 3.2 8.0 0.00 0.00 0.00 27 1015.1
20260504222235 23 184 3.2 14.5 0.00 0.00 0.00 26 1015.2
20260504221215 23 178 8.0 14.5 0.00 0.00 0.00 24 1015.3
20260504220215 24 182 9.7 16.1 0.00 0.00 0.00 24 1015.4
20260504215215 24 161 9.7 16.1 0.00 0.00 0.00 25 1015.4
20260504213215 24 158 12.9 24.1 0.00 0.00 0.00 24 1015.3
20260504212235 24 253 3.2 8.0 0.00 0.00 0.00 25 1015.5
20260504211215 25 236 4.8 14.5 0.00 0.00 0.00 24 1015.5
20260504210235 24 143 0.0 16.1 0.00 0.00 0.00 27 1015.3
20260504205215 24 190 3.2 11.3 0.00 0.00 0.00 26 1015.5
20260504204235 24 252 1.6 12.9 0.00 0.00 0.00 24 1015.8
20260504203215 24 151 9.7 19.3 0.00 0.00 0.00 25 1015.9
20260504202215 24 216 3.2 12.9 0.00 0.00 0.00 23 1016.2
20260504201215 23 195 3.2 9.7 0.00 0.00 0.00 24 1016.2
20260504200235 24 192 6.4 16.1 0.00 0.00 0.00 24 1016.3
20260504195215 23 250 1.6 16.1 0.00 0.00 0.00 25 1016.5
20260504194257 24 235 6.4 12.9 0.00 0.00 0.00 23 1016.6
20260504193217 24 158 6.4 12.9 0.00 0.00 0.00 27 1016.6
20260504192237 23 131 6.4 14.5 0.00 0.00 0.00 23 1016.8
20260504191237 23 158 6.4 17.7 0.00 0.00 0.00 27 1016.9
20260504190237 23 180 3.2 9.7 0.00 0.00 0.00 27 1016.9
20260504185237 22 169 4.8 14.5 0.00 0.00 0.00 28 1017.1
20260504184217 23 207 3.2 9.7 0.00 0.00 0.00 27 1017.2
20260504182237 23 185 3.2 9.7 0.00 0.00 0.00 28 1017.4
20260504181237 23 117 1.6 8.0 0.00 0.00 0.00 28 1017.4
20260504175217 23 180 3.2 12.9 0.00 0.00 0.00 28 1017.8
20260504174216 22 174 1.6 4.8 0.00 0.00 0.00 30 1017.8
20260504173237 22 153 8.0 16.1 0.00 0.00 0.00 29 1017.8
20260504171217 23 287 0.0 3.2 0.00 0.00 0.00 28 1018.1
20260504170217 23 277 0.0 6.4 0.00 0.00 0.00 28 1018.0
20260504160216 21 185 4.8 11.3 0.00 0.00 0.00 33 1019.4
20260504150216 20 100 0.0 6.4 0.00 0.00 0.00 36 1019.4
20260504141216 17 196 1.6 4.8 0.00 0.00 0.00 53 1019.4
20260504140236 17 198 0.0 3.2 0.00 0.00 0.00 57 1019.5
20260504130216 12 166 1.6 3.2 0.00 0.00 0.00 68 1019.4
20260504120236 10 158 1.6 3.2 0.00 0.00 0.00 75 1018.9
20260504110216 8 173 1.6 6.4 0.00 0.00 0.00 79 1018.9
20260504100215 8 179 1.6 4.8 0.00 0.00 0.00 75 1018.9
20260504081255 10 142 6.4 11.3 0.00 0.00 0.00 72 1018.4
20260504080216 10 156 3.2 6.4 0.00 0.00 0.00 71 1018.3
20260504070215 10 178 1.6 6.4 0.00 0.00 0.00 67 1018.7
20260504060215 11 154 3.2 6.4 0.00 0.00 0.00 64 1019.0
20260504050255 12 160 6.4 9.7 0.00 0.00 0.00 62 1018.9
20260504045235 12 164 4.8 9.7 0.00 0.00 0.00 61 1019.1
20260504044235 12 156 3.2 8.0 0.00 0.00 0.00 61 1019.2
20260504043315 12 157 3.2 8.0 0.00 0.00 0.00 60 1019.2
20260504042215 12 169 3.2 6.4 0.00 0.00 0.00 60 1019.3
20260504041215 12 171 3.2 6.4 0.00 0.00 0.00 60 1019.3
20260504040215 12 164 3.2 6.4 0.00 0.00 0.00 59 1019.3
20260504035236 12 164 1.6 9.7 0.00 0.00 0.00 59 1019.3
20260504034216 12 167 1.6 4.8 0.00 0.00 0.00 58 1019.5
20260504033236 13 185 3.2 9.7 0.00 0.00 0.00 57 1019.4